Content
SEND FEEDBACK

Daily
Averages
Monthly
Summary
Tuvalu

VAITUPU, TUVALU


Home > Oceania > Tuvalu
Elevation: 7 feet     Latitude: 08 31S     Longitude: 179 13E

WEATHER
 
SELECT A DAY
Number of Records: 110,131;   Date Range: 2/8/97 - 7/22/14
 
SHARE

PRINT THIS DATA

[ ← Previous Day ]
WEATHER ALMANAC - FEBRUARY 13, 2013
[ Next Day → ]
[ °C ]   °F
Weather ElementAverageHighLow
Temperature83.4 °F86 °F (8:00 am)78.8 °F (11:00 pm)
Dewpoint76.9 °F78.8 °F (2:00 pm)75.2 °F (3:00 am)
Humidity80.1 %94 % (11:00 pm)72 % (6:00 pm)
Barometer29.75 in29.80 in (9:00 am)29.68 in (5:00 pm)
Wind Speed9 mph15 mph (10:00 pm)
Weather ElementAverage
Visibility8.8 mi
Wind DirectionENE (52.1 °)

Weather ElementTotal
Precipitation---
Cooling Degree Days17.4 (Base 65)
Growing Degree Days32.4 (Base 50)
Averaged from 24 records on February 13, 2013
WEATHER CONDITIONS BREAKOUT
WIND DIRECTION BREAKOUT
WEATHER BY HOUR - FEBRUARY 13, 2013
[ °C ]   °F
Local TimeTemperatureDewpointHumidityBarometerVisibilityWind DirectionWind SpeedGust SpeedPrecipitationEventsConditions
1:00 AM82.4 °F77.0 °F84 %29.77 in6.2 miNNE (20°)8.1 mphPartly Cloudy
2:00 AM82.4 °F77.0 °F84 %29.74 in6.2 miNNE (20°)5.8 mphPartly Cloudy
3:00 AM82.0 °F76.0 °F76 %29.75 in31.0 miNE (50°)9.2 mphPartly Cloudy
3:00 AM82.4 °F75.2 °F79 %29.74 in6.2 miNE (50°)9.2 mphScattered Clouds
4:00 AM80.6 °F77.0 °F89 %29.74 in6.2 miNE (50°)8.1 mphScattered Clouds
5:00 AM82.4 °F77.0 °F84 %29.74 in6.2 miNE (50°)5.8 mphPartly Cloudy
6:00 AM82.4 °F75.2 °F79 %29.77 in6.2 miNE (50°)6.9 mphMostly Cloudy
6:00 AM82.0 °F76.0 °F77 %29.78 in12.0 miNE (50°)6.9 mphPartly Cloudy
7:00 AM84.2 °F77.0 °F79 %29.77 in6.2 miEast (80°)10.4 mphPartly Cloudy
8:00 AM86.0 °F77.0 °F74 %29.77 in6.2 miENE (60°)8.1 mphPartly Cloudy
9:00 AM86.0 °F77.0 °F74 %29.80 in6.2 miENE (70°)9.2 mphScattered Clouds
10:00 AM86.0 °F77.0 °F74 %29.80 in6.2 miENE (70°)8.1 mphPartly Cloudy
12:00 PM80.6 °F77.0 °F89 %29.80 in6.2 miNorth (10°)10.4 mphMostly Cloudy
12:00 PM81.0 °F78.0 °F87 %29.80 in12.0 miNorth (10°)10.4 mphPartly Cloudy
1:00 PM86.0 °F77.0 °F74 %29.74 in6.2 miENE (60°)10.4 mphPartly Cloudy
2:00 PM86.0 °F78.8 °F79 %29.74 in6.2 miENE (60°)8.1 mphPartly Cloudy
4:00 PM86.0 °F77.0 °F74 %29.71 in6.2 miENE (60°)9.2 mphScattered Clouds
5:00 PM86.0 °F77.0 °F74 %29.68 in6.2 miENE (70°)6.9 mphPartly Cloudy
6:00 PM84.2 °F77.0 °F79 %29.71 in6.2 miNE (50°)9.2 mphPartly Cloudy
6:00 PM85.0 °F77.0 °F72 %29.73 in31.0 miNE (50°)9.2 mphPartly Cloudy
7:00 PM84.2 °F77.0 °F79 %29.74 in6.2 miENE (60°)9.2 mphPartly Cloudy
8:00 PM84.2 °F77.0 °F79 %29.74 in6.2 miENE (60°)9.2 mphPartly Cloudy
10:00 PM80.6 °F77.0 °F89 %29.77 in6.2 miENE (60°)15.0 mphPartly Cloudy
11:00 PM78.8 °F77.0 °F94 %29.77 in6.2 miEast (80°)13.8 mphMostly Cloudy
Hourly data recorded from NGFU, located miles away from Vaitupu, Tuvalu







STORIES FROM OUR PARTNERS